Torna al catalogo

KUIPER-00613

AttivoComunicazioniLEO
NORAD 69293·PAYLOAD·🇺🇸 United States

Lanciato May 29, 2026 da Vandenberg Space Force Base

Loading…

Prossimi Passaggi (prossime 24 ore)

TLE

AggiornatoSource: CelesTrak SupGP

Epoca: Sep 14, 2026, 23:35 UTC

1 69293C 26118AC  26257.98307870  .00001620  00000+0  21215-3 0  2570
2 69293  51.9016   6.0894 0000461  97.1369 165.8090 14.79921503    17

Traccia KUIPER-00613 in tempo reale con AllMySat

Download on the App Store